Scottsdale, AZ

4:24 AM MST on October 22, 2017 (GMT -0700)
Scottsdale

Weather History for KSDL - August, 2013

Change the Weather History Date:

Tuesday, August 27, 2013

  Actual Average Record
Temperature  
Mean Temperature 93 °F -  
Max Temperature 105 °F 98 °F 109 °F (2005)
Min Temperature 81 °F 78 °F 73 °F (2002)
Cooling Degree Days 28    
Growing Degree Days 43 (Base 50)    
Moisture  
Dew Point 61 °F    
Average Humidity 38    
Maximum Humidity 67    
Minimum Humidity 17    
Precipitation  
Precipitation 0.00 in - - ()
Sea Level Pressure  
Sea Level Pressure 29.74 in    
Wind  
Wind Speed 4 mph (SW)    
Max Wind Speed 15 mph    
Max Gust Speed 21 mph    
Visibility 10 miles    
Events Thunderstorm    
Averages and records for this station are not official NWS values.
T = Trace of Precipitation, MM = Missing Value Source: NWS Daily Summary

Daily Weather History Graph

Daily Weather History Graph

Search for Another Location

Airport or City:

Trip Planner

Search our weather history database for the weather conditions in past years. The results will help you decide how hot, cold, wet, or windy it might be!

Date:

Astronomy

Aug. 27, 2013 Rise Set
Actual Time 5:58 AM MST 6:59 PM MST
Civil Twilight 5:32 AM MST 7:24 PM MST
Nautical Twilight 5:02 AM MST 7:54 PM MST
Astronomical Twilight 4:31 AM MST 8:26 PM MST
Moon 11:17 PM MST (8/27) 12:38 PM MST (8/27)
Length of Visible Light 13h 51m
Length of Day
13h 00m
Waning Gibbous, 56% of the Moon is Illuminated
Aug 27
Waning Gibbous
Aug 28
Last Quarter
Sep 5
New
Sep 12
First Quarter
Sep 19
Full

Hourly Weather History & Observations

Time (MST) Temp. Heat Index Dew Point Humidity Pressure Visibility Wind Dir Wind Speed Gust Speed Precip Events Conditions
12:53 AM 82.0 °F 84.9 °F 68.0 °F 62% 29.81 in 10.0 mi North 3.5 mph - N/A   Clear
1:53 AM 84.0 °F 85.8 °F 64.9 °F 53% 29.78 in 10.0 mi Calm Calm - N/A   Clear
2:53 AM 82.0 °F 84.5 °F 66.9 °F 60% 29.76 in 10.0 mi WSW 3.5 mph - N/A   Clear
3:53 AM 82.0 °F 84.5 °F 66.9 °F 60% 29.75 in 10.0 mi Calm Calm - N/A   Clear
4:53 AM 81.0 °F 83.8 °F 68.0 °F 65% 29.75 in 10.0 mi Calm Calm - N/A   Clear
5:53 AM 81.0 °F 83.8 °F 68.0 °F 65% 29.77 in 10.0 mi Calm Calm - N/A   Clear
6:53 AM 81.0 °F 84.1 °F 69.1 °F 67% 29.79 in 10.0 mi SW 3.5 mph - N/A   Clear
7:53 AM 82.0 °F 85.5 °F 69.1 °F 65% 29.80 in 10.0 mi Calm Calm - N/A   Clear
8:53 AM 84.9 °F 88.8 °F 69.1 °F 59% 29.80 in 10.0 mi SSW 3.5 mph - N/A   Clear
9:53 AM 89.1 °F 92.9 °F 68.0 °F 50% 29.80 in 10.0 mi Variable 4.6 mph - N/A   Clear
10:53 AM 95.0 °F 97.4 °F 64.9 °F 37% 29.78 in 10.0 mi SSE 5.8 mph - N/A   Clear
11:53 AM 98.1 °F 100.7 °F 64.0 °F 33% 29.76 in 10.0 mi South 5.8 mph - N/A   Clear
12:53 PM 102.0 °F 102.7 °F 60.1 °F 25% 29.74 in 10.0 mi Variable 6.9 mph - N/A   Clear
1:42 PM 102.2 °F 101.4 °F 57.2 °F 22% 29.80 in 10.0 mi SSW 11.5 mph 18.4 mph N/A Thunderstorm Clear
1:53 PM 104.0 °F 102.9 °F 55.9 °F 20% 29.72 in 10.0 mi SW 15.0 mph 20.7 mph N/A Thunderstorm Clear
2:36 PM 105.8 °F 104.3 °F 53.6 °F 18% 29.80 in 10.0 mi Variable 4.6 mph - N/A   Clear
2:53 PM 105.1 °F 103.3 °F 53.1 °F 18% 29.70 in 10.0 mi SSW 12.7 mph 18.4 mph N/A   Clear
3:15 PM 102.2 °F 100.4 °F 53.6 °F 20% 29.78 in 10.0 mi Variable 6.9 mph - N/A Thunderstorm Clear
3:51 PM 105.8 °F - 51.8 °F 17% 29.76 in 10.0 mi SSW 6.9 mph 18.4 mph N/A   Partly Cloudy
3:53 PM 105.1 °F - 52.0 °F 17% 29.67 in 10.0 mi Variable 6.9 mph 18.4 mph N/A   Partly Cloudy
4:53 PM 102.0 °F 100.6 °F 55.0 °F 21% 29.67 in 10.0 mi Variable 5.8 mph - N/A   Partly Cloudy
5:53 PM 102.0 °F 100.1 °F 54.0 °F 20% 29.65 in 10.0 mi SE 3.5 mph - N/A   Clear
6:53 PM 100.9 °F 99.6 °F 55.9 °F 22% 29.67 in 10.0 mi SW 8.1 mph - N/A   Clear
7:53 PM 99.0 °F 98.1 °F 57.9 °F 25% 29.68 in 10.0 mi WSW 4.6 mph - N/A   Clear
8:53 PM 97.0 °F 96.5 °F 59.0 °F 28% 29.70 in 10.0 mi Calm Calm - N/A   Clear
9:53 PM 95.0 °F 95.2 °F 61.0 °F 32% 29.71 in 10.0 mi NNW 3.5 mph - N/A   Clear
10:53 PM 93.9 °F 94.8 °F 62.1 °F 35% 29.70 in 10.0 mi Calm Calm - N/A   Clear
11:53 PM 91.9 °F 92.5 °F 62.1 °F 37% 29.70 in 10.0 mi Calm Calm - N/A   Clear